| time (UTC) | temp F | wind direction | speed knots | gust knots | rain 1hr in | rain 24hr in | rain mn in | humidity % | barometer mb |
| 20260502214458 | 59 | 80 | 2.6 | 0.0 | 0.00 | 0.00 | 0.00 | 94 | 1013.0 |
| 20260502212957 | 59 | 80 | 6.1 | 0.0 | 0.00 | 0.00 | 0.00 | 94 | 1014.0 |
| 20260502211458 | 59 | 80 | 6.1 | 0.0 | 0.00 | 0.00 | 0.00 | 94 | 1014.0 |
| 20260502205958 | 61 | 110 | 7.8 | 0.0 | 0.00 | 0.00 | 0.00 | 88 | 1015.0 |
| 20260502204458 | 61 | 110 | 7.8 | 0.0 | 0.00 | 0.00 | 0.00 | 88 | 1015.0 |
| 20260502202957 | 64 | 30 | 4.3 | 0.0 | 0.00 | 0.00 | 0.00 | 68 | 1014.0 |
| 20260502201457 | 64 | 30 | 4.3 | 0.0 | 0.00 | 0.00 | 0.00 | 68 | 1014.0 |
| 20260502195957 | 68 | 350 | 7.0 | 0.0 | 0.00 | 0.00 | 0.00 | 60 | 1014.0 |
| 20260502194458 | 68 | 350 | 7.0 | 0.0 | 0.00 | 0.00 | 0.00 | 60 | 1014.0 |
| 20260502192957 | 68 | 330 | 2.6 | 0.0 | 0.00 | 0.00 | 0.00 | 60 | 1014.0 |
| 20260502191457 | 68 | 330 | 2.6 | 0.0 | 0.00 | 0.00 | 0.00 | 60 | 1014.0 |
| 20260502185957 | 72 | 330 | 4.3 | 0.0 | 0.00 | 0.00 | 0.00 | 53 | 1014.0 |
| 20260502184457 | 72 | 330 | 4.3 | 0.0 | 0.00 | 0.00 | 0.00 | 53 | 1014.0 |
| 20260502182957 | 72 | 1.7 | 0.0 | 0.00 | 0.00 | 0.00 | 53 | 1014.0 | |
| 20260502181458 | 72 | 1.7 | 0.0 | 0.00 | 0.00 | 0.00 | 53 | 1014.0 | |
| 20260502162957 | 73 | 210 | 4.3 | 0.0 | 0.00 | 0.00 | 0.00 | 47 | 1015.0 |
| 20260502161458 | 73 | 210 | 4.3 | 0.0 | 0.00 | 0.00 | 0.00 | 47 | 1015.0 |
| 20260502151457 | 75 | 220 | 5.2 | 0.0 | 0.00 | 0.00 | 0.00 | 47 | 1015.0 |
| 20260502122957 | 73 | 240 | 7.8 | 0.0 | 0.00 | 0.00 | 0.00 | 50 | 1017.0 |
| 20260502121457 | 73 | 240 | 7.8 | 0.0 | 0.00 | 0.00 | 0.00 | 50 | 1017.0 |
| 20260502114458 | 73 | 220 | 10.4 | 0.0 | 0.00 | 0.00 | 0.00 | 50 | 1017.0 |
| 20260502112957 | 72 | 220 | 7.8 | 0.0 | 0.00 | 0.00 | 0.00 | 46 | 1017.0 |
| 20260502111458 | 72 | 220 | 7.8 | 0.0 | 0.00 | 0.00 | 0.00 | 46 | 1017.0 |
| 20260502105958 | 70 | 210 | 8.7 | 0.0 | 0.00 | 0.00 | 0.00 | 49 | 1018.0 |
| 20260502104457 | 70 | 210 | 8.7 | 0.0 | 0.00 | 0.00 | 0.00 | 49 | 1018.0 |
| 20260502102957 | 70 | 180 | 7.8 | 0.0 | 0.00 | 0.00 | 0.00 | 43 | 1018.0 |
| 20260502101457 | 70 | 180 | 7.8 | 0.0 | 0.00 | 0.00 | 0.00 | 43 | 1018.0 |
| 20260502091457 | 64 | 200 | 1.7 | 0.0 | 0.00 | 0.00 | 0.00 | 52 | 1018.0 |
| 20260502071457 | 63 | 200 | 6.1 | 0.0 | 0.00 | 0.00 | 0.00 | 42 | 1018.0 |
| 20260502065957 | 61 | 170 | 5.2 | 0.0 | 0.00 | 0.00 | 0.00 | 45 | 1018.0 |
| 20260502064458 | 61 | 170 | 5.2 | 0.0 | 0.00 | 0.00 | 0.00 | 45 | 1018.0 |
| 20260502062957 | 57 | 120 | 2.6 | 0.0 | 0.00 | 0.00 | 0.00 | 51 | 1018.0 |
| 20260502061457 | 57 | 120 | 2.6 | 0.0 | 0.00 | 0.00 | 0.00 | 51 | 1018.0 |
| 20260502055958 | 55 | 1.7 | 0.0 | 0.00 | 0.00 | 0.00 | 51 | 1018.0 | |
| 20260502054457 | 55 | 1.7 | 0.0 | 0.00 | 0.00 | 0.00 | 51 | 1018.0 | |
| 20260502052958 | 52 | 100 | 2.6 | 0.0 | 0.00 | 0.00 | 0.00 | 54 | 1018.0 |
| 20260502051458 | 52 | 100 | 2.6 | 0.0 | 0.00 | 0.00 | 0.00 | 54 | 1018.0 |
| 20260502045957 | 50 | 0.9 | 0.0 | 0.00 | 0.00 | 0.00 | 58 | 1018.0 | |
| 20260502044457 | 50 | 0.9 | 0.0 | 0.00 | 0.00 | 0.00 | 58 | 1018.0 | |
| 20260502042958 | 52 | 90 | 2.6 | 0.0 | 0.00 | 0.00 | 0.00 | 54 | 1018.0 |
| 20260502041457 | 52 | 90 | 2.6 | 0.0 | 0.00 | 0.00 | 0.00 | 54 | 1018.0 |
| 20260502035957 | 52 | 100 | 2.6 | 0.0 | 0.00 | 0.00 | 0.00 | 54 | 1019.0 |
| 20260502034458 | 52 | 100 | 2.6 | 0.0 | 0.00 | 0.00 | 0.00 | 54 | 1019.0 |
| 20260502032957 | 52 | 1.7 | 0.0 | 0.00 | 0.00 | 0.00 | 54 | 1019.0 | |
| 20260502031457 | 52 | 1.7 | 0.0 | 0.00 | 0.00 | 0.00 | 54 | 1019.0 | |
| 20260502025958 | 52 | 100 | 2.6 | 0.0 | 0.00 | 0.00 | 0.00 | 54 | 1019.0 |
| 20260502024457 | 52 | 100 | 2.6 | 0.0 | 0.00 | 0.00 | 0.00 | 54 | 1019.0 |
| 20260502022957 | 52 | 100 | 4.3 | 0.0 | 0.00 | 0.00 | 0.00 | 54 | 1019.0 |
| 20260502021457 | 52 | 100 | 4.3 | 0.0 | 0.00 | 0.00 | 0.00 | 54 | 1019.0 |
| 20260502015958 | 52 | 120 | 2.6 | 0.0 | 0.00 | 0.00 | 0.00 | 54 | 1019.0 |
| 20260502014458 | 52 | 120 | 2.6 | 0.0 | 0.00 | 0.00 | 0.00 | 54 | 1019.0 |
| 20260502012958 | 54 | 150 | 2.6 | 0.0 | 0.00 | 0.00 | 0.00 | 50 | 1020.0 |
| 20260502011457 | 54 | 150 | 2.6 | 0.0 | 0.00 | 0.00 | 0.00 | 50 | 1020.0 |
| 20260502005957 | 54 | 150 | 4.3 | 0.0 | 0.00 | 0.00 | 0.00 | 50 | 1020.0 |
| 20260502004458 | 54 | 150 | 4.3 | 0.0 | 0.00 | 0.00 | 0.00 | 50 | 1020.0 |
| 20260502002957 | 57 | 160 | 6.1 | 0.0 | 0.00 | 0.00 | 0.00 | 44 | 1020.0 |
| 20260502001457 | 57 | 160 | 6.1 | 0.0 | 0.00 | 0.00 | 0.00 | 44 | 1020.0 |
| 20260501235957 | 57 | 160 | 6.1 | 0.0 | 0.00 | 0.00 | 0.00 | 44 | 1020.0 |
| 20260501234457 | 57 | 160 | 6.1 | 0.0 | 0.00 | 0.00 | 0.00 | 44 | 1020.0 |
| 20260501232957 | 57 | 150 | 5.2 | 0.0 | 0.00 | 0.00 | 0.00 | 44 | 1020.0 |
| 20260501231457 | 57 | 150 | 5.2 | 0.0 | 0.00 | 0.00 | 0.00 | 44 | 1020.0 |
| 20260501225957 | 59 | 140 | 6.1 | 0.0 | 0.00 | 0.00 | 0.00 | 41 | 1020.0 |
| 20260501224457 | 59 | 140 | 6.1 | 0.0 | 0.00 | 0.00 | 0.00 | 41 | 1020.0 |
| 20260501222958 | 61 | 120 | 5.2 | 0.0 | 0.00 | 0.00 | 0.00 | 39 | 1021.0 |
| 20260501221458 | 61 | 120 | 5.2 | 0.0 | 0.00 | 0.00 | 0.00 | 39 | 1021.0 |
| 20260501215957 | 59 | 110 | 5.2 | 0.0 | 0.00 | 0.00 | 0.00 | 41 | 1021.0 |